Year,Month,Day,Hour,Minute,Value (Times are PST for temperature in C)
2016,04,11,00,00,7.80
2016,04,11,00,01,7.80
2016,04,11,00,02,7.80
2016,04,11,00,03,7.80
2016,04,11,00,04,7.80
2016,04,11,00,05,7.80
2016,04,11,00,06,7.80
2016,04,11,00,07,7.80
2016,04,11,00,08,7.80
2016,04,11,00,09,7.80
2016,04,11,00,10,7.90
2016,04,11,00,11,7.90
2016,04,11,00,12,7.90
2016,04,11,00,13,7.90
2016,04,11,00,14,7.90
2016,04,11,00,15,7.90
2016,04,11,00,16,8.00
2016,04,11,00,17,8.00
2016,04,11,00,18,8.10
2016,04,11,00,19,8.10
2016,04,11,00,20,8.10
2016,04,11,00,21,8.20
2016,04,11,00,22,8.20
2016,04,11,00,23,8.20
2016,04,11,00,24,8.30
2016,04,11,00,25,8.30
2016,04,11,00,26,8.30
2016,04,11,00,27,8.30
2016,04,11,00,28,8.40
2016,04,11,00,29,8.40
2016,04,11,00,30,8.40
2016,04,11,00,31,8.40
2016,04,11,00,32,8.40
2016,04,11,00,33,8.50
2016,04,11,00,34,8.50
2016,04,11,00,35,8.60
2016,04,11,00,36,8.60
2016,04,11,00,37,8.60
2016,04,11,00,38,8.70
2016,04,11,00,39,8.70
2016,04,11,00,40,8.70
2016,04,11,00,41,8.80
2016,04,11,00,42,8.80
2016,04,11,00,43,8.80
2016,04,11,00,44,8.80
2016,04,11,00,45,8.90
2016,04,11,00,46,8.90
2016,04,11,00,47,8.90
2016,04,11,00,48,9.00
2016,04,11,00,49,9.00
2016,04,11,00,50,9.10
2016,04,11,00,51,9.10
2016,04,11,00,52,9.10
2016,04,11,00,53,9.10
2016,04,11,00,54,9.20
2016,04,11,00,55,9.20
2016,04,11,00,56,9.20
2016,04,11,00,57,9.20
2016,04,11,00,58,9.30
2016,04,11,00,59,9.30
2016,04,11,01,00,9.30
2016,04,11,01,01,9.30
2016,04,11,01,02,9.30
2016,04,11,01,03,9.30
2016,04,11,01,04,9.30
2016,04,11,01,05,9.30
2016,04,11,01,06,9.40
2016,04,11,01,07,9.40
2016,04,11,01,08,9.40
2016,04,11,01,09,9.40
2016,04,11,01,10,9.40
2016,04,11,01,11,9.40
2016,04,11,01,12,9.40
2016,04,11,01,13,9.40
2016,04,11,01,14,9.40
2016,04,11,01,15,9.40
2016,04,11,01,16,9.50
2016,04,11,01,17,9.50
2016,04,11,01,18,9.50
2016,04,11,01,19,9.50
2016,04,11,01,20,9.50
2016,04,11,01,21,9.50
2016,04,11,01,22,9.50
2016,04,11,01,23,9.50
2016,04,11,01,24,9.60
2016,04,11,01,25,9.60
2016,04,11,01,26,9.60
2016,04,11,01,27,9.60
2016,04,11,01,28,9.60
2016,04,11,01,29,9.60
2016,04,11,01,30,9.60
2016,04,11,01,31,9.60
2016,04,11,01,32,9.60
2016,04,11,01,33,9.60
2016,04,11,01,34,9.60
2016,04,11,01,35,9.60
2016,04,11,01,36,9.60
2016,04,11,01,37,9.60
2016,04,11,01,38,9.60
2016,04,11,01,39,9.60
2016,04,11,01,40,9.50
2016,04,11,01,41,9.50
2016,04,11,01,42,9.50
2016,04,11,01,43,9.50
2016,04,11,01,44,9.50
2016,04,11,01,45,9.40
2016,04,11,01,46,9.50
2016,04,11,01,47,9.40
2016,04,11,01,48,9.40
2016,04,11,01,49,9.40
2016,04,11,01,50,9.40
2016,04,11,01,51,9.40
2016,04,11,01,52,9.40
2016,04,11,01,53,9.40
2016,04,11,01,54,9.40
2016,04,11,01,55,9.40
2016,04,11,01,56,9.40
2016,04,11,01,57,9.40
2016,04,11,01,58,9.40
2016,04,11,01,59,9.40
2016,04,11,02,00,9.40
2016,04,11,02,01,9.30
2016,04,11,02,02,9.30
2016,04,11,02,03,9.30
2016,04,11,02,04,9.30
2016,04,11,02,05,9.30
2016,04,11,02,06,9.30
2016,04,11,02,07,9.30
2016,04,11,02,08,9.30
2016,04,11,02,09,9.30
2016,04,11,02,10,9.30
2016,04,11,02,11,9.30
2016,04,11,02,12,9.30
2016,04,11,02,13,9.30
2016,04,11,02,14,9.30
2016,04,11,02,15,9.30
2016,04,11,02,16,9.30
2016,04,11,02,17,9.30
2016,04,11,02,18,9.30
2016,04,11,02,19,9.30
2016,04,11,02,20,9.30
2016,04,11,02,21,9.30
2016,04,11,02,22,9.30
2016,04,11,02,23,9.30
2016,04,11,02,24,9.30
2016,04,11,02,25,9.30
2016,04,11,02,26,9.40
2016,04,11,02,27,9.40
2016,04,11,02,28,9.40
2016,04,11,02,29,9.40
2016,04,11,02,30,9.40
2016,04,11,02,31,9.40
2016,04,11,02,32,9.40
2016,04,11,02,33,9.40
2016,04,11,02,34,9.40
2016,04,11,02,35,9.40
2016,04,11,02,36,9.40
2016,04,11,02,37,9.40
2016,04,11,02,38,9.40
2016,04,11,02,39,9.40
2016,04,11,02,40,9.40
2016,04,11,02,41,9.40
2016,04,11,02,42,9.40
2016,04,11,02,43,9.40
2016,04,11,02,44,9.30
2016,04,11,02,45,9.30
2016,04,11,02,46,9.30
2016,04,11,02,47,9.30
2016,04,11,02,48,9.30
2016,04,11,02,49,9.30
2016,04,11,02,50,9.30
2016,04,11,02,51,9.30
2016,04,11,02,52,9.30
2016,04,11,02,53,9.30
2016,04,11,02,54,9.30
2016,04,11,02,55,9.30
2016,04,11,02,56,9.30
2016,04,11,02,57,9.30
2016,04,11,02,58,9.30
2016,04,11,02,59,9.30
2016,04,11,03,00,9.30
2016,04,11,03,01,9.30
2016,04,11,03,02,9.30
2016,04,11,03,03,9.30
2016,04,11,03,04,9.30
2016,04,11,03,05,9.30
2016,04,11,03,06,9.20
2016,04,11,03,07,9.20
2016,04,11,03,08,9.20
2016,04,11,03,09,9.20
2016,04,11,03,10,9.10
2016,04,11,03,11,9.10
2016,04,11,03,12,9.10
2016,04,11,03,13,9.10
2016,04,11,03,14,9.00
2016,04,11,03,15,9.00
2016,04,11,03,16,9.00
2016,04,11,03,17,9.00
2016,04,11,03,18,9.00
2016,04,11,03,19,9.00
2016,04,11,03,20,9.00
2016,04,11,03,21,9.00
2016,04,11,03,22,9.00
2016,04,11,03,23,8.90
2016,04,11,03,24,8.90
2016,04,11,03,25,8.90
2016,04,11,03,26,8.90
2016,04,11,03,27,8.90
2016,04,11,03,28,8.80
2016,04,11,03,29,8.80
2016,04,11,03,30,8.80
2016,04,11,03,31,8.80
2016,04,11,03,32,8.80
2016,04,11,03,33,8.80
2016,04,11,03,34,8.80
2016,04,11,03,35,8.80
2016,04,11,03,36,8.80
2016,04,11,03,37,8.80
2016,04,11,03,38,8.80
2016,04,11,03,39,8.80
2016,04,11,03,40,8.90
2016,04,11,03,41,8.90
2016,04,11,03,42,9.00
2016,04,11,03,43,9.10
2016,04,11,03,44,9.20
2016,04,11,03,45,9.20
2016,04,11,03,46,9.20
2016,04,11,03,47,9.20
2016,04,11,03,48,9.20
2016,04,11,03,49,9.20
2016,04,11,03,50,9.20
2016,04,11,03,51,9.20
2016,04,11,03,52,9.20
2016,04,11,03,53,9.10
2016,04,11,03,54,9.10
2016,04,11,03,55,9.10
2016,04,11,03,56,9.10
2016,04,11,03,57,9.10
2016,04,11,03,58,9.10
2016,04,11,03,59,9.10
2016,04,11,04,00,9.00
2016,04,11,04,01,8.90
2016,04,11,04,02,8.90
2016,04,11,04,03,8.80
2016,04,11,04,04,8.80
2016,04,11,04,05,8.80
2016,04,11,04,06,8.80
2016,04,11,04,07,8.80
2016,04,11,04,08,8.80
2016,04,11,04,09,8.90
2016,04,11,04,10,8.90
2016,04,11,04,11,8.90
2016,04,11,04,12,9.00
2016,04,11,04,13,9.00
2016,04,11,04,14,8.90
2016,04,11,04,15,8.90
2016,04,11,04,16,8.90
2016,04,11,04,17,8.90
2016,04,11,04,18,8.90
2016,04,11,04,19,8.80
2016,04,11,04,20,8.70
2016,04,11,04,21,8.70
2016,04,11,04,22,8.60
2016,04,11,04,23,8.60
2016,04,11,04,24,8.60
2016,04,11,04,25,8.70
2016,04,11,04,26,8.70
2016,04,11,04,27,8.70
2016,04,11,04,28,8.70
2016,04,11,04,29,8.70
2016,04,11,04,30,8.70
2016,04,11,04,31,8.70
2016,04,11,04,32,8.70
2016,04,11,04,33,8.70
2016,04,11,04,34,8.80
2016,04,11,04,35,8.80
2016,04,11,04,36,8.80
2016,04,11,04,37,8.80
2016,04,11,04,38,8.90
2016,04,11,04,39,8.90
2016,04,11,04,40,8.90
2016,04,11,04,41,8.80
2016,04,11,04,42,8.70
2016,04,11,04,43,8.70
2016,04,11,04,44,8.60
2016,04,11,04,45,8.60
2016,04,11,04,46,8.60
2016,04,11,04,47,8.50
2016,04,11,04,48,8.50
2016,04,11,04,49,8.50
2016,04,11,04,50,8.50
2016,04,11,04,51,8.50
2016,04,11,04,52,8.60
2016,04,11,04,53,8.60
2016,04,11,04,54,8.60
2016,04,11,04,55,8.60
2016,04,11,04,56,8.60
2016,04,11,04,57,8.60
2016,04,11,04,58,8.60
2016,04,11,04,59,8.70
2016,04,11,05,00,8.70
2016,04,11,05,01,8.80
2016,04,11,05,02,8.80
2016,04,11,05,03,8.80
2016,04,11,05,04,8.70
2016,04,11,05,05,8.70
2016,04,11,05,06,8.60
2016,04,11,05,07,8.50
2016,04,11,05,08,8.40
2016,04,11,05,09,8.40
2016,04,11,05,10,8.40
2016,04,11,05,11,8.40
2016,04,11,05,12,8.40
2016,04,11,05,13,8.50
2016,04,11,05,14,8.50
2016,04,11,05,15,8.50
2016,04,11,05,16,8.50
2016,04,11,05,17,8.50
2016,04,11,05,18,8.50
2016,04,11,05,19,8.50
2016,04,11,05,20,8.50
2016,04,11,05,21,8.50
2016,04,11,05,22,8.50
2016,04,11,05,23,8.50
2016,04,11,05,24,8.50
2016,04,11,05,25,8.50
2016,04,11,05,26,8.50
2016,04,11,05,27,8.60
2016,04,11,05,28,8.60
2016,04,11,05,29,8.60
2016,04,11,05,30,8.50
2016,04,11,05,31,8.50
2016,04,11,05,32,8.40
2016,04,11,05,33,8.40
2016,04,11,05,34,8.40
2016,04,11,05,35,8.40
2016,04,11,05,36,8.30
2016,04,11,05,37,8.30
2016,04,11,05,38,8.30
2016,04,11,05,39,8.20
2016,04,11,05,40,8.20
2016,04,11,05,41,8.20
2016,04,11,05,42,8.20
2016,04,11,05,43,8.20
2016,04,11,05,44,8.20
2016,04,11,05,45,8.20
2016,04,11,05,46,8.20
2016,04,11,05,47,8.20
2016,04,11,05,48,8.20
2016,04,11,05,49,8.20
2016,04,11,05,50,8.20
2016,04,11,05,51,8.10
2016,04,11,05,52,8.10
2016,04,11,05,53,8.00
2016,04,11,05,54,8.00
2016,04,11,05,55,7.90
2016,04,11,05,56,7.90
2016,04,11,05,57,7.90
2016,04,11,05,58,7.90
2016,04,11,05,59,7.90
2016,04,11,06,00,7.90
2016,04,11,06,01,7.80
2016,04,11,06,02,7.80
2016,04,11,06,03,7.80
2016,04,11,06,04,7.80
2016,04,11,06,05,7.70
2016,04,11,06,06,7.70
2016,04,11,06,07,7.70
2016,04,11,06,08,7.70
2016,04,11,06,09,7.70
2016,04,11,06,10,7.70
2016,04,11,06,11,7.70
2016,04,11,06,12,7.70
2016,04,11,06,13,7.70
2016,04,11,06,14,7.70
2016,04,11,06,15,7.70
2016,04,11,06,16,7.70
2016,04,11,06,17,7.70
2016,04,11,06,18,7.70
2016,04,11,06,19,7.70
2016,04,11,06,20,7.70
2016,04,11,06,21,7.60
2016,04,11,06,22,7.60
2016,04,11,06,23,7.60
2016,04,11,06,24,7.70
2016,04,11,06,25,7.70
2016,04,11,06,26,7.70
2016,04,11,06,27,7.70
2016,04,11,06,28,7.70
2016,04,11,06,29,7.60
2016,04,11,06,30,7.60
2016,04,11,06,31,7.60
2016,04,11,06,32,7.70
2016,04,11,06,33,7.80
2016,04,11,06,34,7.80
2016,04,11,06,35,7.90
2016,04,11,06,36,7.90
2016,04,11,06,37,7.90
2016,04,11,06,38,7.80
2016,04,11,06,39,7.90
2016,04,11,06,40,7.90
2016,04,11,06,41,8.00
2016,04,11,06,42,8.00
2016,04,11,06,43,8.10
2016,04,11,06,44,8.20
2016,04,11,06,45,8.20
2016,04,11,06,46,8.20
2016,04,11,06,47,8.30
2016,04,11,06,48,8.20
2016,04,11,06,49,8.20
2016,04,11,06,50,8.10
2016,04,11,06,51,8.00
2016,04,11,06,52,8.00
2016,04,11,06,53,8.00
2016,04,11,06,54,8.10
2016,04,11,06,55,8.20
2016,04,11,06,56,8.20
2016,04,11,06,57,8.20
2016,04,11,06,58,8.20
2016,04,11,06,59,8.20
2016,04,11,07,00,8.10
2016,04,11,07,01,8.10
2016,04,11,07,02,8.10
2016,04,11,07,03,8.10
2016,04,11,07,04,8.10
2016,04,11,07,05,8.10
2016,04,11,07,06,8.10
2016,04,11,07,07,8.10
2016,04,11,07,08,8.10
2016,04,11,07,09,8.10
2016,04,11,07,10,8.10
2016,04,11,07,11,8.10
2016,04,11,07,12,8.20
2016,04,11,07,13,8.20
2016,04,11,07,14,8.30
2016,04,11,07,15,8.40
2016,04,11,07,16,8.40
2016,04,11,07,17,8.50
2016,04,11,07,18,8.50
2016,04,11,07,19,8.60
2016,04,11,07,20,8.60
2016,04,11,07,21,8.70
2016,04,11,07,22,8.70
2016,04,11,07,23,8.70
2016,04,11,07,24,8.80
2016,04,11,07,25,8.80
2016,04,11,07,26,8.90
2016,04,11,07,27,9.00
2016,04,11,07,28,9.10
2016,04,11,07,29,9.20
2016,04,11,07,30,9.30
2016,04,11,07,31,9.40
2016,04,11,07,32,9.40
2016,04,11,07,33,9.50
2016,04,11,07,34,9.60
2016,04,11,07,35,9.60
2016,04,11,07,36,9.60
2016,04,11,07,37,9.70
2016,04,11,07,38,9.80
2016,04,11,07,39,9.80
2016,04,11,07,40,9.80
2016,04,11,07,41,9.80
2016,04,11,07,42,9.90
2016,04,11,07,43,9.90
2016,04,11,07,44,9.90
2016,04,11,07,45,9.90
2016,04,11,07,46,9.90
2016,04,11,07,47,9.90
2016,04,11,07,48,9.90
2016,04,11,07,49,10.00
2016,04,11,07,50,10.10
2016,04,11,07,51,10.10
2016,04,11,07,52,10.20
2016,04,11,07,53,10.20
2016,04,11,07,54,10.20
2016,04,11,07,55,10.30
2016,04,11,07,56,10.30
2016,04,11,07,57,10.40
2016,04,11,07,58,10.40
2016,04,11,07,59,10.40
2016,04,11,08,00,10.50
2016,04,11,08,01,10.50
2016,04,11,08,02,10.50
2016,04,11,08,03,10.50
2016,04,11,08,04,10.50
2016,04,11,08,05,10.50
2016,04,11,08,06,10.50
2016,04,11,08,07,10.50
2016,04,11,08,08,10.50
2016,04,11,08,09,10.50
2016,04,11,08,10,10.50
2016,04,11,08,11,10.50
2016,04,11,08,12,10.50
2016,04,11,08,13,10.50
2016,04,11,08,14,10.60
2016,04,11,08,15,10.60
2016,04,11,08,16,10.60
2016,04,11,08,17,10.60
2016,04,11,08,18,10.60
2016,04,11,08,19,10.60
2016,04,11,08,20,10.70
2016,04,11,08,21,10.70
2016,04,11,08,22,10.70
2016,04,11,08,23,10.70
2016,04,11,08,24,10.70
2016,04,11,08,25,10.70
2016,04,11,08,26,10.70
2016,04,11,08,27,10.70
2016,04,11,08,28,10.70
2016,04,11,08,29,10.70
2016,04,11,08,30,10.80
2016,04,11,08,31,10.80
2016,04,11,08,32,10.80
2016,04,11,08,33,10.80
2016,04,11,08,34,10.70
2016,04,11,08,35,10.70
2016,04,11,08,36,10.60
2016,04,11,08,37,10.60
2016,04,11,08,38,10.50
2016,04,11,08,39,10.50
2016,04,11,08,40,10.40
2016,04,11,08,41,10.40
2016,04,11,08,42,10.40
2016,04,11,08,43,10.40
2016,04,11,08,44,10.50
2016,04,11,08,45,10.50
2016,04,11,08,46,10.50
2016,04,11,08,47,10.60
2016,04,11,08,48,10.60
2016,04,11,08,49,10.60
2016,04,11,08,50,10.70
2016,04,11,08,51,10.70
2016,04,11,08,52,10.70
2016,04,11,08,53,10.70
2016,04,11,08,54,10.80
2016,04,11,08,55,10.80
2016,04,11,08,56,10.80
2016,04,11,08,57,10.90
2016,04,11,08,58,10.90
2016,04,11,08,59,11.00
2016,04,11,09,00,11.00
2016,04,11,09,01,11.00
2016,04,11,09,02,11.00
2016,04,11,09,03,11.00
2016,04,11,09,04,10.90
2016,04,11,09,05,10.90
2016,04,11,09,06,10.90
2016,04,11,09,07,10.90
2016,04,11,09,08,10.90
2016,04,11,09,09,10.90
2016,04,11,09,10,11.00
2016,04,11,09,11,11.10
2016,04,11,09,12,11.10
2016,04,11,09,13,11.10
2016,04,11,09,14,11.10
2016,04,11,09,15,11.20
2016,04,11,09,16,11.20
2016,04,11,09,17,11.30
2016,04,11,09,18,11.30
2016,04,11,09,19,11.40
2016,04,11,09,20,11.40
2016,04,11,09,21,11.50
2016,04,11,09,22,11.50
2016,04,11,09,23,11.60
2016,04,11,09,24,11.60
2016,04,11,09,25,11.50
2016,04,11,09,26,11.50
2016,04,11,09,27,11.50
2016,04,11,09,28,11.40
2016,04,11,09,29,11.40
2016,04,11,09,30,11.50
2016,04,11,09,31,11.50
2016,04,11,09,32,11.60
2016,04,11,09,33,11.60
2016,04,11,09,34,11.70
2016,04,11,09,35,11.70
2016,04,11,09,36,11.80
2016,04,11,09,37,11.90
2016,04,11,09,38,12.00
2016,04,11,09,39,12.00
2016,04,11,09,40,12.10
2016,04,11,09,41,12.10
2016,04,11,09,42,12.20
2016,04,11,09,43,12.20
2016,04,11,09,44,12.20
2016,04,11,09,45,12.30
2016,04,11,09,46,12.30
2016,04,11,09,47,12.30
2016,04,11,09,48,12.20
2016,04,11,09,49,12.20
2016,04,11,09,50,12.20
2016,04,11,09,51,12.20
2016,04,11,09,52,12.20
2016,04,11,09,53,12.20
2016,04,11,09,54,12.20
2016,04,11,09,55,12.20
2016,04,11,09,56,12.20
2016,04,11,09,57,12.20
2016,04,11,09,58,12.20
2016,04,11,09,59,12.30
2016,04,11,10,00,12.30
2016,04,11,10,01,12.20
2016,04,11,10,02,12.20
2016,04,11,10,03,12.20
2016,04,11,10,04,12.20
2016,04,11,10,05,12.20
2016,04,11,10,06,12.30
2016,04,11,10,07,12.30
2016,04,11,10,08,12.30
2016,04,11,10,09,12.40
2016,04,11,10,10,12.40
2016,04,11,10,11,12.40
2016,04,11,10,12,12.40
2016,04,11,10,13,12.40
2016,04,11,10,14,12.40
2016,04,11,10,15,12.40
2016,04,11,10,16,12.40
2016,04,11,10,17,12.50
2016,04,11,10,18,12.50
2016,04,11,10,19,12.60
2016,04,11,10,20,12.50
2016,04,11,10,21,12.60
2016,04,11,10,22,12.60
2016,04,11,10,23,12.60
2016,04,11,10,24,12.70
2016,04,11,10,25,12.70
2016,04,11,10,26,12.80
2016,04,11,10,27,12.80
2016,04,11,10,28,12.90
2016,04,11,10,29,13.00
2016,04,11,10,30,13.00
2016,04,11,10,31,13.10
2016,04,11,10,32,13.10
2016,04,11,10,33,13.10
2016,04,11,10,34,13.10
2016,04,11,10,35,13.00
2016,04,11,10,36,12.90
2016,04,11,10,37,12.90
2016,04,11,10,38,12.80
2016,04,11,10,39,12.80
2016,04,11,10,40,12.80
2016,04,11,10,41,12.60
2016,04,11,10,42,12.60
2016,04,11,10,43,12.40
2016,04,11,10,44,12.30
2016,04,11,10,45,12.20
2016,04,11,10,46,12.20
2016,04,11,10,47,12.20
2016,04,11,10,48,12.30
2016,04,11,10,49,12.30
2016,04,11,10,50,12.40
2016,04,11,10,51,12.50
2016,04,11,10,52,12.60
2016,04,11,10,53,12.60
2016,04,11,10,54,12.60
2016,04,11,10,55,12.60
2016,04,11,10,56,12.60
2016,04,11,10,57,12.60
2016,04,11,10,58,12.60
2016,04,11,10,59,12.50
2016,04,11,11,00,12.50
2016,04,11,11,01,12.40
2016,04,11,11,02,12.40
2016,04,11,11,03,12.40
2016,04,11,11,04,12.40
2016,04,11,11,05,12.50
2016,04,11,11,06,12.60
2016,04,11,11,07,12.70
2016,04,11,11,08,12.70
2016,04,11,11,09,12.80
2016,04,11,11,10,12.80
2016,04,11,11,11,12.80
2016,04,11,11,12,12.80
2016,04,11,11,13,12.70
2016,04,11,11,14,12.70
2016,04,11,11,15,12.60
2016,04,11,11,16,12.60
2016,04,11,11,17,12.60
2016,04,11,11,18,12.60
2016,04,11,11,19,12.70
2016,04,11,11,20,12.70
2016,04,11,11,21,12.70
2016,04,11,11,22,12.60
2016,04,11,11,23,12.60
2016,04,11,11,24,12.70
2016,04,11,11,25,12.70
2016,04,11,11,26,12.80
2016,04,11,11,27,12.70
2016,04,11,11,28,12.80
2016,04,11,11,29,12.80
2016,04,11,11,30,12.80
2016,04,11,11,31,12.90
2016,04,11,11,32,12.90
2016,04,11,11,33,12.90
2016,04,11,11,34,12.90
2016,04,11,11,35,12.80
2016,04,11,11,36,12.90
2016,04,11,11,37,13.00
2016,04,11,11,38,13.00
2016,04,11,11,39,13.00
2016,04,11,11,40,13.00
2016,04,11,11,41,12.90
2016,04,11,11,42,12.90
2016,04,11,11,43,12.90
2016,04,11,11,44,12.90
2016,04,11,11,45,12.90
2016,04,11,11,46,12.90
2016,04,11,11,47,13.00
2016,04,11,11,48,13.00
2016,04,11,11,49,13.10
2016,04,11,11,50,13.00
2016,04,11,11,51,13.10
2016,04,11,11,52,13.10
2016,04,11,11,53,13.00
2016,04,11,11,54,12.90
2016,04,11,11,55,12.80
2016,04,11,11,56,12.70
2016,04,11,11,57,12.70
2016,04,11,11,58,12.70
2016,04,11,11,59,12.70
2016,04,11,12,00,12.70
2016,04,11,12,01,12.70
2016,04,11,12,02,12.70
2016,04,11,12,03,12.80
2016,04,11,12,04,12.80
2016,04,11,12,05,12.80
2016,04,11,12,06,12.80
2016,04,11,12,07,12.80
2016,04,11,12,08,12.80
2016,04,11,12,09,12.70
2016,04,11,12,10,12.70
2016,04,11,12,11,12.60
2016,04,11,12,12,12.50
2016,04,11,12,13,12.50
2016,04,11,12,14,12.40
2016,04,11,12,15,12.50
2016,04,11,12,16,12.60
2016,04,11,12,17,12.60
2016,04,11,12,18,12.50
2016,04,11,12,19,12.50
2016,04,11,12,20,12.40
2016,04,11,12,21,12.40
2016,04,11,12,22,12.40
2016,04,11,12,23,12.40
2016,04,11,12,24,12.40
2016,04,11,12,25,12.40
2016,04,11,12,26,12.50
2016,04,11,12,27,12.50
2016,04,11,12,28,12.50
2016,04,11,12,29,12.50
2016,04,11,12,30,12.50
2016,04,11,12,31,12.50
2016,04,11,12,32,12.40
2016,04,11,12,33,12.40
2016,04,11,12,34,12.40
2016,04,11,12,35,12.40
2016,04,11,12,36,12.40
2016,04,11,12,37,12.40
2016,04,11,12,38,12.40
2016,04,11,12,39,12.30
2016,04,11,12,40,12.30
2016,04,11,12,41,12.30
2016,04,11,12,42,12.30
2016,04,11,12,43,12.30
2016,04,11,12,44,12.30
2016,04,11,12,45,12.30
2016,04,11,12,46,12.30
2016,04,11,12,47,12.30
2016,04,11,12,48,12.30
2016,04,11,12,49,12.30
2016,04,11,12,50,12.20
2016,04,11,12,51,12.30
2016,04,11,12,52,12.30
2016,04,11,12,53,12.30
2016,04,11,12,54,12.20
2016,04,11,12,55,12.30
2016,04,11,12,56,12.30
2016,04,11,12,57,12.30
2016,04,11,12,58,12.40
2016,04,11,12,59,12.50
2016,04,11,13,00,12.50
2016,04,11,13,01,12.50
2016,04,11,13,02,12.50
2016,04,11,13,03,12.50
2016,04,11,13,04,12.50
2016,04,11,13,05,12.50
2016,04,11,13,06,12.50
2016,04,11,13,07,12.50
2016,04,11,13,08,12.50
2016,04,11,13,09,12.50
2016,04,11,13,10,12.50
2016,04,11,13,11,12.40
2016,04,11,13,12,12.40
2016,04,11,13,13,12.40
2016,04,11,13,14,12.30
2016,04,11,13,15,12.30
2016,04,11,13,16,12.40
2016,04,11,13,17,12.40
2016,04,11,13,18,12.40
2016,04,11,13,19,12.30
2016,04,11,13,20,12.40
2016,04,11,13,21,12.40
2016,04,11,13,22,12.40
2016,04,11,13,23,12.50
2016,04,11,13,24,12.50
2016,04,11,13,25,12.50
2016,04,11,13,26,12.40
2016,04,11,13,27,12.40
2016,04,11,13,28,12.40
2016,04,11,13,29,12.40
2016,04,11,13,30,12.40
2016,04,11,13,31,12.40
2016,04,11,13,32,12.30
2016,04,11,13,33,12.30
2016,04,11,13,34,12.30
2016,04,11,13,35,12.30
2016,04,11,13,36,12.40
2016,04,11,13,37,12.40
2016,04,11,13,38,12.50
2016,04,11,13,39,12.50
2016,04,11,13,40,12.60
2016,04,11,13,41,12.70
2016,04,11,13,42,12.80
2016,04,11,13,43,12.80
2016,04,11,13,44,12.80
2016,04,11,13,45,12.80
2016,04,11,13,46,12.80
2016,04,11,13,47,12.80
2016,04,11,13,48,12.80
2016,04,11,13,49,12.80
2016,04,11,13,50,12.80
2016,04,11,13,51,12.70
2016,04,11,13,52,12.70
2016,04,11,13,53,12.70
2016,04,11,13,54,12.70
2016,04,11,13,55,12.70
2016,04,11,13,56,12.60
2016,04,11,13,57,12.60
2016,04,11,13,58,12.60
2016,04,11,13,59,12.60
2016,04,11,14,00,12.60
2016,04,11,14,01,12.60
2016,04,11,14,02,12.70
2016,04,11,14,03,12.70
2016,04,11,14,04,12.70
2016,04,11,14,05,12.80
2016,04,11,14,06,12.80
2016,04,11,14,07,12.80
2016,04,11,14,08,12.70
2016,04,11,14,09,12.70
2016,04,11,14,10,12.70
2016,04,11,14,11,12.70
2016,04,11,14,12,12.70
2016,04,11,14,13,12.70
2016,04,11,14,14,12.70
2016,04,11,14,15,12.70
2016,04,11,14,16,12.70
2016,04,11,14,17,12.70
2016,04,11,14,18,12.70
2016,04,11,14,19,12.60
2016,04,11,14,20,12.60
2016,04,11,14,21,12.60
2016,04,11,14,22,12.60
2016,04,11,14,23,12.60
2016,04,11,14,24,12.70
2016,04,11,14,25,12.70
2016,04,11,14,26,12.70
2016,04,11,14,27,12.70
2016,04,11,14,28,12.70
2016,04,11,14,29,12.80
2016,04,11,14,30,12.80
2016,04,11,14,31,12.80
2016,04,11,14,32,12.80
2016,04,11,14,33,12.80
2016,04,11,14,34,12.90
2016,04,11,14,35,12.90
2016,04,11,14,36,12.80
2016,04,11,14,37,12.80
2016,04,11,14,38,12.70
2016,04,11,14,39,12.70
2016,04,11,14,40,12.70
2016,04,11,14,41,12.70
2016,04,11,14,42,12.60
2016,04,11,14,43,12.60
2016,04,11,14,44,12.60
2016,04,11,14,45,12.60
2016,04,11,14,46,12.60
2016,04,11,14,47,12.60
2016,04,11,14,48,12.60
2016,04,11,14,49,12.60
2016,04,11,14,50,12.60
2016,04,11,14,51,12.60
2016,04,11,14,52,12.60
2016,04,11,14,53,12.60
2016,04,11,14,54,12.60
2016,04,11,14,55,12.70
2016,04,11,14,56,12.70
2016,04,11,14,57,12.70
2016,04,11,14,58,12.70
2016,04,11,14,59,12.60
2016,04,11,15,00,12.60
2016,04,11,15,01,12.70
2016,04,11,15,02,12.70
2016,04,11,15,03,12.70
2016,04,11,15,04,12.70
2016,04,11,15,05,12.70
2016,04,11,15,06,12.70
2016,04,11,15,07,12.70
2016,04,11,15,08,12.60
2016,04,11,15,09,12.70
2016,04,11,15,10,12.60
2016,04,11,15,11,12.60
2016,04,11,15,12,12.60
2016,04,11,15,13,12.70
2016,04,11,15,14,12.70
2016,04,11,15,15,12.70
2016,04,11,15,16,12.70
2016,04,11,15,17,12.70
2016,04,11,15,18,12.70
2016,04,11,15,19,12.70
2016,04,11,15,20,12.70
2016,04,11,15,21,12.70
2016,04,11,15,22,12.70
2016,04,11,15,23,12.70
2016,04,11,15,24,12.70
2016,04,11,15,25,12.70
2016,04,11,15,26,12.70
2016,04,11,15,27,12.80
2016,04,11,15,28,12.80
2016,04,11,15,29,12.80
2016,04,11,15,30,12.80
2016,04,11,15,31,12.80
2016,04,11,15,32,12.80
2016,04,11,15,33,12.80
2016,04,11,15,34,12.80
2016,04,11,15,35,12.80
2016,04,11,15,36,12.80
2016,04,11,15,37,12.80
2016,04,11,15,38,12.80
2016,04,11,15,39,12.80
2016,04,11,15,40,12.80
2016,04,11,15,41,12.80
2016,04,11,15,42,12.80
2016,04,11,15,43,12.80
2016,04,11,15,44,12.80
2016,04,11,15,45,12.90
2016,04,11,15,46,12.90
2016,04,11,15,47,12.90
2016,04,11,15,48,12.90
2016,04,11,15,49,12.90
2016,04,11,15,50,12.80
2016,04,11,15,51,12.80
2016,04,11,15,52,12.70
2016,04,11,15,53,12.60
2016,04,11,15,54,12.60
2016,04,11,15,55,12.60
2016,04,11,15,56,12.60
2016,04,11,15,57,12.60
2016,04,11,15,58,12.60
2016,04,11,15,59,12.60
2016,04,11,16,00,12.60
2016,04,11,16,01,12.50
2016,04,11,16,02,12.50
2016,04,11,16,03,12.50
2016,04,11,16,04,12.40
2016,04,11,16,05,12.40
2016,04,11,16,06,12.40
2016,04,11,16,07,12.40
2016,04,11,16,08,12.40
2016,04,11,16,09,12.40
2016,04,11,16,10,12.30
2016,04,11,16,11,12.30
2016,04,11,16,12,12.40
2016,04,11,16,13,12.30
2016,04,11,16,14,12.30
2016,04,11,16,15,12.30
2016,04,11,16,16,12.40
2016,04,11,16,17,12.40
2016,04,11,16,18,12.40
2016,04,11,16,19,12.40
2016,04,11,16,20,12.30
2016,04,11,16,21,12.30
2016,04,11,16,22,12.30
2016,04,11,16,23,12.30
2016,04,11,16,24,12.30
2016,04,11,16,25,12.30
2016,04,11,16,26,12.40
2016,04,11,16,27,12.40
2016,04,11,16,28,12.40
2016,04,11,16,29,12.40
2016,04,11,16,30,12.40
2016,04,11,16,31,12.40
2016,04,11,16,32,12.40
2016,04,11,16,33,12.40
2016,04,11,16,34,12.40
2016,04,11,16,35,12.40
2016,04,11,16,36,12.40
2016,04,11,16,37,12.40
2016,04,11,16,38,12.40
2016,04,11,16,39,12.40
2016,04,11,16,40,12.40
2016,04,11,16,41,12.40
2016,04,11,16,42,12.40
2016,04,11,16,43,12.40
2016,04,11,16,44,12.40
2016,04,11,16,45,12.40
2016,04,11,16,46,12.40
2016,04,11,16,47,12.40
2016,04,11,16,48,12.50
2016,04,11,16,49,12.40
2016,04,11,16,50,12.40
2016,04,11,16,51,12.40
2016,04,11,16,52,12.40
2016,04,11,16,53,12.30
2016,04,11,16,54,12.30
2016,04,11,16,55,12.30
2016,04,11,16,56,12.30
2016,04,11,16,57,12.30
2016,04,11,16,58,12.30
2016,04,11,16,59,12.30
2016,04,11,17,00,12.20
2016,04,11,17,01,12.20
2016,04,11,17,02,12.10
2016,04,11,17,03,12.10
2016,04,11,17,04,12.10
2016,04,11,17,05,12.10
2016,04,11,17,06,12.10
2016,04,11,17,07,12.10
2016,04,11,17,08,12.10
2016,04,11,17,09,12.10
2016,04,11,17,10,12.10
2016,04,11,17,11,12.10
2016,04,11,17,12,12.10
2016,04,11,17,13,12.10
2016,04,11,17,14,12.10
2016,04,11,17,15,12.10
2016,04,11,17,16,12.10
2016,04,11,17,17,12.10
2016,04,11,17,18,12.10
2016,04,11,17,19,12.10
2016,04,11,17,20,12.10
2016,04,11,17,21,12.00
2016,04,11,17,22,12.00
2016,04,11,17,23,12.10
2016,04,11,17,24,12.00
2016,04,11,17,25,12.00
2016,04,11,17,26,12.00
2016,04,11,17,27,11.90
2016,04,11,17,28,11.90
2016,04,11,17,29,11.90
2016,04,11,17,30,11.90
2016,04,11,17,31,11.90
2016,04,11,17,32,11.90
2016,04,11,17,33,11.90
2016,04,11,17,34,11.90
2016,04,11,17,35,11.90
2016,04,11,17,36,11.90
2016,04,11,17,37,11.90
2016,04,11,17,38,11.90
2016,04,11,17,39,11.90